| time (UTC) | temp F | wind direction | speed MPH | gust MPH | rain 1hr in | rain 24hr in | rain mn in | humidity % | barometer mb |
| 20260506212517 | 73 | 270 | 1.0 | 8.0 | 0.00 | 0.00 | 0.00 | 77 | 1012.1 |
| 20260506211537 | 74 | 293 | 1.0 | 4.0 | 0.00 | 0.00 | 0.00 | 77 | 1012.1 |
| 20260506210617 | 74 | 293 | 1.0 | 6.0 | 0.00 | 0.00 | 0.00 | 78 | 1012.5 |
| 20260506205618 | 73 | 315 | 1.0 | 5.0 | 0.00 | 0.00 | 0.00 | 76 | 1012.5 |
| 20260506204537 | 73 | 90 | 1.0 | 3.0 | 0.00 | 0.00 | 0.00 | 77 | 1012.8 |
| 20260506203517 | 74 | 113 | 1.0 | 4.0 | 0.00 | 0.00 | 0.00 | 76 | 1012.9 |
| 20260506202517 | 73 | 293 | 1.0 | 7.0 | 0.00 | 0.00 | 0.00 | 78 | 1013.0 |
| 20260506201537 | 73 | 90 | 1.0 | 4.0 | 0.00 | 0.00 | 0.00 | 79 | 1013.0 |
| 20260506200517 | 72 | 315 | 1.0 | 5.0 | 0.00 | 0.00 | 0.00 | 80 | 1012.8 |
| 20260506195517 | 71 | 293 | 2.0 | 7.0 | 0.00 | 0.00 | 0.00 | 80 | 1012.8 |
| 20260506194617 | 72 | 315 | 1.0 | 6.0 | 0.00 | 0.00 | 0.00 | 80 | 1012.8 |
| 20260506193517 | 71 | 293 | 2.0 | 8.0 | 0.00 | 0.00 | 0.00 | 80 | 1012.9 |
| 20260506192537 | 70 | 315 | 2.0 | 8.0 | 0.00 | 0.00 | 0.00 | 82 | 1012.6 |
| 20260506191537 | 69 | 315 | 1.0 | 4.0 | 0.00 | 0.00 | 0.00 | 83 | 1012.7 |
| 20260506190517 | 69 | 293 | 2.0 | 8.0 | 0.00 | 0.00 | 0.00 | 82 | 1013.2 |
| 20260506185517 | 70 | 293 | 2.0 | 8.0 | 0.00 | 0.00 | 0.00 | 82 | 1013.4 |
| 20260506184517 | 70 | 293 | 1.0 | 6.0 | 0.00 | 0.00 | 0.00 | 82 | 1013.3 |
| 20260506183537 | 69 | 0.0 | 5.0 | 0.00 | 0.00 | 0.00 | 85 | 1012.8 | |
| 20260506182517 | 68 | 315 | 1.0 | 3.0 | 0.00 | 0.00 | 0.00 | 84 | 1012.9 |
| 20260506181557 | 68 | 315 | 1.0 | 4.0 | 0.00 | 0.00 | 0.00 | 84 | 1013.5 |
| 20260506180517 | 68 | 293 | 1.0 | 8.0 | 0.00 | 0.00 | 0.00 | 84 | 1014.3 |
| 20260506175517 | 68 | 293 | 1.0 | 5.0 | 0.00 | 0.00 | 0.00 | 84 | 1014.4 |
| 20260506174517 | 69 | 0.0 | 2.0 | 0.00 | 0.00 | 0.00 | 84 | 1014.8 | |
| 20260506173517 | 69 | 270 | 1.0 | 4.0 | 0.00 | 0.00 | 0.00 | 80 | 1015.0 |
| 20260506172537 | 70 | 0.0 | 1.0 | 0.00 | 0.00 | 0.00 | 79 | 1015.0 | |
| 20260506171557 | 69 | 0.0 | 0.0 | 0.00 | 0.00 | 0.00 | 80 | 1014.9 | |
| 20260506170617 | 69 | 0.0 | 1.0 | 0.00 | 0.00 | 0.00 | 79 | 1014.8 | |
| 20260506165537 | 70 | 0.0 | 0.0 | 0.00 | 0.00 | 0.00 | 80 | 1014.8 | |
| 20260506164537 | 70 | 315 | 1.0 | 4.0 | 0.00 | 0.00 | 0.00 | 78 | 1014.7 |
| 20260506163517 | 69 | 0.0 | 2.0 | 0.00 | 0.00 | 0.00 | 78 | 1014.8 | |
| 20260506162537 | 69 | 0.0 | 4.0 | 0.00 | 0.00 | 0.00 | 77 | 1014.9 | |
| 20260506161537 | 69 | 0.0 | 3.0 | 0.00 | 0.00 | 0.00 | 79 | 1014.8 | |
| 20260506160517 | 69 | 315 | 1.0 | 7.0 | 0.00 | 0.00 | 0.00 | 78 | 1014.8 |
| 20260506155517 | 68 | 293 | 1.0 | 4.0 | 0.00 | 0.00 | 0.00 | 77 | 1014.8 |
| 20260506154517 | 68 | 315 | 1.0 | 5.0 | 0.00 | 0.00 | 0.00 | 78 | 1014.3 |
| 20260506153617 | 68 | 315 | 1.0 | 3.0 | 0.00 | 0.00 | 0.00 | 78 | 1014.2 |
| 20260506152517 | 67 | 0.0 | 2.0 | 0.00 | 0.00 | 0.00 | 78 | 1014.3 | |
| 20260506151517 | 67 | 0.0 | 5.0 | 0.00 | 0.00 | 0.00 | 78 | 1014.5 | |
| 20260506150517 | 67 | 315 | 1.0 | 6.0 | 0.00 | 0.00 | 0.00 | 77 | 1014.3 |
| 20260506145517 | 67 | 293 | 1.0 | 4.0 | 0.00 | 0.00 | 0.00 | 78 | 1014.4 |
| 20260506144516 | 67 | 315 | 1.0 | 5.0 | 0.00 | 0.00 | 0.00 | 77 | 1014.5 |
| 20260506143537 | 67 | 0.0 | 4.0 | 0.00 | 0.00 | 0.00 | 77 | 1014.5 | |
| 20260506142637 | 67 | 293 | 1.0 | 9.0 | 0.00 | 0.00 | 0.00 | 76 | 1014.3 |
| 20260506141537 | 67 | 315 | 1.0 | 4.0 | 0.00 | 0.00 | 0.00 | 76 | 1014.3 |
| 20260506140536 | 67 | 315 | 1.0 | 4.0 | 0.00 | 0.00 | 0.00 | 77 | 1014.4 |
| 20260506135536 | 66 | 0.0 | 3.0 | 0.00 | 0.00 | 0.00 | 77 | 1014.2 | |
| 20260506134516 | 66 | 315 | 1.0 | 4.0 | 0.00 | 0.00 | 0.00 | 77 | 1014.2 |
| 20260506133536 | 66 | 45 | 1.0 | 4.0 | 0.00 | 0.00 | 0.00 | 78 | 1014.3 |
| 20260506132617 | 65 | 315 | 1.0 | 5.0 | 0.00 | 0.00 | 0.00 | 78 | 1014.0 |
| 20260506131516 | 65 | 293 | 2.0 | 8.0 | 0.00 | 0.00 | 0.00 | 79 | 1013.9 |
| 20260506130557 | 64 | 293 | 1.0 | 5.0 | 0.00 | 0.00 | 0.00 | 79 | 1013.9 |
| 20260506125516 | 64 | 270 | 1.0 | 5.0 | 0.00 | 0.00 | 0.00 | 79 | 1014.4 |
| 20260506124536 | 63 | 0.0 | 2.0 | 0.00 | 0.00 | 0.00 | 80 | 1014.4 | |
| 20260506123616 | 63 | 315 | 1.0 | 5.0 | 0.00 | 0.00 | 0.00 | 80 | 1014.5 |
| 20260506122516 | 63 | 0.0 | 4.0 | 0.00 | 0.00 | 0.00 | 81 | 1014.7 | |
| 20260506121616 | 63 | 270 | 1.0 | 3.0 | 0.00 | 0.00 | 0.00 | 81 | 1014.7 |
| 20260506120536 | 63 | 293 | 1.0 | 3.0 | 0.00 | 0.00 | 0.00 | 81 | 1014.6 |
| 20260506115516 | 62 | 315 | 1.0 | 6.0 | 0.00 | 0.00 | 0.00 | 81 | 1014.6 |
| 20260506114516 | 62 | 293 | 1.0 | 5.0 | 0.00 | 0.00 | 0.00 | 81 | 1014.5 |
| 20260506113516 | 62 | 293 | 1.0 | 4.0 | 0.00 | 0.00 | 0.00 | 82 | 1014.4 |
| 20260506112516 | 62 | 293 | 1.0 | 4.0 | 0.00 | 0.00 | 0.00 | 82 | 1014.4 |
| 20260506111516 | 61 | 0.0 | 1.0 | 0.00 | 0.00 | 0.00 | 82 | 1014.4 | |
| 20260506110516 | 61 | 0.0 | 4.0 | 0.00 | 0.00 | 0.00 | 82 | 1014.2 | |
| 20260506105616 | 61 | 0.0 | 2.0 | 0.00 | 0.00 | 0.00 | 82 | 1014.0 | |
| 20260506104536 | 61 | 0.0 | 2.0 | 0.00 | 0.00 | 0.00 | 82 | 1013.8 | |
| 20260506103536 | 61 | 315 | 1.0 | 3.0 | 0.00 | 0.00 | 0.00 | 81 | 1013.8 |
| 20260506102536 | 61 | 315 | 1.0 | 4.0 | 0.00 | 0.00 | 0.00 | 81 | 1013.9 |
| 20260506101516 | 62 | 0.0 | 3.0 | 0.00 | 0.00 | 0.00 | 80 | 1013.9 | |
| 20260506100516 | 62 | 315 | 1.0 | 7.0 | 0.00 | 0.00 | 0.00 | 81 | 1013.5 |
| 20260506095516 | 62 | 315 | 1.0 | 3.0 | 0.00 | 0.00 | 0.00 | 80 | 1013.8 |
| 20260506094556 | 62 | 315 | 1.0 | 5.0 | 0.00 | 0.00 | 0.00 | 80 | 1013.9 |
| 20260506093616 | 62 | 0.0 | 3.0 | 0.00 | 0.00 | 0.00 | 80 | 1014.1 | |
| 20260506092636 | 62 | 315 | 1.0 | 7.0 | 0.00 | 0.00 | 0.00 | 80 | 1013.9 |
| 20260506091556 | 62 | 293 | 1.0 | 4.0 | 0.00 | 0.00 | 0.00 | 79 | 1014.2 |
| 20260506090536 | 63 | 315 | 1.0 | 4.0 | 0.00 | 0.00 | 0.00 | 79 | 1014.3 |
| 20260506085516 | 63 | 315 | 1.0 | 4.0 | 0.00 | 0.00 | 0.00 | 78 | 1014.4 |
| 20260506084516 | 63 | 315 | 2.0 | 9.0 | 0.00 | 0.00 | 0.00 | 78 | 1014.4 |
| 20260506083536 | 63 | 315 | 1.0 | 4.0 | 0.00 | 0.00 | 0.00 | 78 | 1014.3 |
| 20260506082516 | 63 | 293 | 1.0 | 7.0 | 0.00 | 0.00 | 0.00 | 78 | 1014.4 |
| 20260506081616 | 63 | 0.0 | 3.0 | 0.00 | 0.00 | 0.00 | 77 | 1014.3 | |
| 20260506080637 | 63 | 315 | 1.0 | 5.0 | 0.00 | 0.00 | 0.00 | 77 | 1014.5 |
| 20260506072536 | 63 | 315 | 1.0 | 4.0 | 0.00 | 0.00 | 0.00 | 78 | 1014.3 |
| 20260506071516 | 63 | 315 | 1.0 | 5.0 | 0.00 | 0.00 | 0.00 | 78 | 1014.2 |
| 20260506070556 | 63 | 315 | 1.0 | 4.0 | 0.00 | 0.00 | 0.00 | 78 | 1014.3 |
| 20260506062516 | 63 | 315 | 1.0 | 5.0 | 0.00 | 0.00 | 0.00 | 76 | 1014.8 |
| 20260506061556 | 64 | 315 | 1.0 | 4.0 | 0.00 | 0.00 | 0.00 | 76 | 1014.8 |
| 20260506060516 | 64 | 315 | 1.0 | 4.0 | 0.00 | 0.00 | 0.00 | 75 | 1014.7 |
| 20260506050518 | 65 | 293 | 2.0 | 6.0 | 0.00 | 0.00 | 0.00 | 71 | 1014.8 |
| 20260506044538 | 65 | 315 | 1.0 | 4.0 | 0.00 | 0.00 | 0.00 | 69 | 1015.1 |
| 20260506043517 | 65 | 315 | 2.0 | 8.0 | 0.00 | 0.00 | 0.00 | 68 | 1015.0 |
| 20260506042517 | 65 | 315 | 1.0 | 4.0 | 0.00 | 0.00 | 0.00 | 67 | 1015.0 |
| 20260506041517 | 65 | 0.0 | 2.0 | 0.00 | 0.00 | 0.00 | 66 | 1015.0 | |
| 20260506040517 | 65 | 0.0 | 4.0 | 0.00 | 0.00 | 0.00 | 66 | 1014.9 | |
| 20260506035536 | 65 | 293 | 1.0 | 4.0 | 0.00 | 0.00 | 0.00 | 65 | 1014.8 |
| 20260506034516 | 65 | 0.0 | 4.0 | 0.00 | 0.00 | 0.00 | 66 | 1014.7 | |
| 20260506033636 | 65 | 0.0 | 2.0 | 0.00 | 0.00 | 0.00 | 65 | 1014.5 | |
| 20260506032536 | 65 | 0.0 | 1.0 | 0.00 | 0.00 | 0.00 | 64 | 1014.5 | |
| 20260506031536 | 65 | 0.0 | 0.0 | 0.00 | 0.00 | 0.00 | 64 | 1014.5 | |
| 20260506030516 | 66 | 0.0 | 1.0 | 0.00 | 0.00 | 0.00 | 63 | 1014.7 | |
| 20260506025556 | 66 | 0.0 | 2.0 | 0.00 | 0.00 | 0.00 | 63 | 1014.7 | |
| 20260506024556 | 66 | 0.0 | 1.0 | 0.00 | 0.00 | 0.00 | 62 | 1014.8 | |
| 20260506023516 | 66 | 0.0 | 2.0 | 0.00 | 0.00 | 0.00 | 62 | 1015.0 | |
| 20260506022516 | 67 | 0.0 | 1.0 | 0.00 | 0.00 | 0.00 | 61 | 1014.9 | |
| 20260506021656 | 67 | 0.0 | 4.0 | 0.00 | 0.00 | 0.00 | 61 | 1015.0 | |
| 20260506020616 | 67 | 0.0 | 1.0 | 0.00 | 0.00 | 0.00 | 61 | 1014.9 | |
| 20260506015556 | 67 | 0.0 | 0.0 | 0.00 | 0.00 | 0.00 | 60 | 1014.7 | |
| 20260506014616 | 67 | 0.0 | 0.0 | 0.00 | 0.00 | 0.00 | 60 | 1014.6 | |
| 20260506013516 | 68 | 0.0 | 0.0 | 0.00 | 0.00 | 0.00 | 59 | 1014.6 | |
| 20260506012556 | 68 | 0.0 | 0.0 | 0.00 | 0.00 | 0.00 | 59 | 1014.4 | |
| 20260506011536 | 69 | 0.0 | 0.0 | 0.00 | 0.00 | 0.00 | 58 | 1014.4 | |
| 20260506010536 | 69 | 0.0 | 1.0 | 0.00 | 0.00 | 0.00 | 56 | 1014.3 | |
| 20260506005518 | 70 | 0.0 | 1.0 | 0.00 | 0.00 | 0.00 | 55 | 1014.1 | |
| 20260506004518 | 70 | 0.0 | 2.0 | 0.00 | 0.00 | 0.00 | 54 | 1014.0 | |
| 20260506003518 | 71 | 0.0 | 2.0 | 0.00 | 0.00 | 0.00 | 53 | 1013.9 | |
| 20260506002538 | 71 | 0.0 | 1.0 | 0.00 | 0.00 | 0.00 | 52 | 1013.7 | |
| 20260506001517 | 72 | 0.0 | 1.0 | 0.00 | 0.00 | 0.00 | 50 | 1013.7 | |
| 20260506000638 | 73 | 0.0 | 2.0 | 0.00 | 0.00 | 0.00 | 49 | 1013.8 | |
| 20260505235538 | 73 | 0.0 | 1.0 | 0.00 | 0.00 | 0.00 | 48 | 1013.6 | |
| 20260505234518 | 74 | 293 | 1.0 | 5.0 | 0.00 | 0.00 | 0.00 | 47 | 1013.4 |
| 20260505233517 | 75 | 315 | 1.0 | 4.0 | 0.00 | 0.00 | 0.00 | 46 | 1013.5 |
| 20260505232557 | 75 | 0.0 | 2.0 | 0.00 | 0.00 | 0.00 | 45 | 1013.2 | |
| 20260505231517 | 76 | 293 | 1.0 | 6.0 | 0.00 | 0.00 | 0.00 | 43 | 1013.3 |
| 20260505230517 | 78 | 315 | 1.0 | 6.0 | 0.00 | 0.00 | 0.00 | 41 | 1013.2 |
| 20260505225517 | 79 | 293 | 1.0 | 10.0 | 0.00 | 0.00 | 0.00 | 41 | 1013.3 |
| 20260505224517 | 79 | 293 | 2.0 | 8.0 | 0.00 | 0.00 | 0.00 | 41 | 1013.4 |
| 20260505223517 | 80 | 293 | 1.0 | 3.0 | 0.00 | 0.00 | 0.00 | 41 | 1013.5 |
| 20260505222537 | 79 | 315 | 2.0 | 6.0 | 0.00 | 0.00 | 0.00 | 40 | 1013.5 |
| 20260505221517 | 80 | 293 | 1.0 | 9.0 | 0.00 | 0.00 | 0.00 | 40 | 1013.7 |
| 20260505220537 | 80 | 293 | 1.0 | 6.0 | 0.00 | 0.00 | 0.00 | 41 | 1013.8 |
| 20260505215517 | 80 | 293 | 2.0 | 12.0 | 0.00 | 0.00 | 0.00 | 39 | 1013.7 |
| 20260505214557 | 81 | 315 | 1.0 | 5.0 | 0.00 | 0.00 | 0.00 | 39 | 1013.8 |
| 20260505213517 | 82 | 293 | 2.0 | 7.0 | 0.00 | 0.00 | 0.00 | 39 | 1013.8 |